Location: Gro�bocka
(50.8204°N, 11.9702°E)
Time: 03:59:23
(UTC+00:00)

X-37B - Visible Passes

Search period start: 22 June 2021 00:00
Search period end: 02 July 2021 00:00
Orbit: 386 x 389 km, 45.0° (Epoch: 10 June)

Date Brightness Start Highest point End Pass type
(mag) Time Alt. Az. Time Alt. Az. Time Alt. Az.
22 Jun 2.9 00:10:40 13° SE 00:10:40 13° SE 00:11:09 10° SE visible
22 Jun 2.3 01:43:04 12° SW 01:44:26 15° SSW 01:46:19 10° SSE visible
23 Jun 2.4 20:34:11 10° S 20:35:57 14° SSE 20:37:42 10° ESE visible
23 Jun 2.6 22:09:13 10° SW 22:10:08 16° SW 22:10:08 16° SW visible
24 Jun 1.8 21:11:10 10° SW 21:13:47 23° SSE 21:15:11 17° SE visible
24 Jun 3.0 22:47:09 10° WSW 22:47:29 12° WSW 22:47:29 12° WSW visible
25 Jun 2.1 20:13:16 10° SSW 20:15:36 19° SSE 20:17:56 10° ESE visible
25 Jun 1.5 21:48:55 10° WSW 21:51:43 28° S 21:51:53 28° S visible
26 Jun 1.6 20:50:45 10° SW 20:53:30 27° S 20:56:01 11° ESE visible
26 Jun 2.4 22:27:01 10° WSW 22:28:17 18° SW 22:28:17 18° SW visible
27 Jun 1.6 21:28:41 10° WSW 21:31:27 27° S 21:32:17 24° SSE visible
28 Jun 1.6 20:30:26 10° WSW 20:33:14 28° S 20:36:02 10° ESE visible
28 Jun 2.4 22:06:59 10° WSW 22:08:29 17° SW 22:08:29 17° SW visible
29 Jun 1.9 21:08:33 10° WSW 21:11:11 24° SSW 21:12:24 19° SSE visible
30 Jun 1.8 20:10:13 10° WSW 20:12:59 27° S 20:15:45 10° SE visible
30 Jun 2.7 21:47:10 10° WSW 21:48:33 14° SW 21:48:33 14° SW visible
01 Jul 2.3 20:48:31 10° WSW 20:50:53 19° SSW 20:52:27 14° SSE visible
